Time,TemperatureF,DewpointF,PressureIn,WindDirection,WindDirectionDegrees,WindSpeedMPH,WindSpeedGustMPH,Humidity,HourlyPrecipIn,Conditions,Clouds,dailyrainin,SoftwareType,DateUTC
2013-03-09 00:03:00,32.7,30.0,29.99,SSE,162,18.2,24.4,89,0.25,,,0.06,CWS Microserver 1.4,2013-03-09 06:03:00,
2013-03-09 00:08:00,32.7,30.1,29.98,SSE,163,24.2,24.4,89,0.29,,,0.10,CWS Microserver 1.4,2013-03-09 06:08:00,
2013-03-09 00:13:00,32.7,30.0,29.98,SSE,162,20.0,24.2,89,0.30,,,0.11,CWS Microserver 1.4,2013-03-09 06:13:00,
2013-03-09 00:18:00,32.7,30.1,29.98,South,170,18.1,24.2,90,0.31,,,0.14,CWS Microserver 1.4,2013-03-09 06:18:00,
2013-03-09 00:23:00,32.7,30.2,29.98,SSE,161,20.7,23.8,90,0.30,,,0.15,CWS Microserver 1.4,2013-03-09 06:23:00,
2013-03-09 00:28:00,32.7,30.2,29.97,SSE,158,19.1,23.7,90,0.29,,,0.16,CWS Microserver 1.4,2013-03-09 06:28:00,
2013-03-09 00:33:00,32.7,30.2,29.97,SSE,152,17.3,23.7,90,0.29,,,0.17,CWS Microserver 1.4,2013-03-09 06:33:00,
2013-03-09 00:38:00,32.7,30.3,29.97,South,179,11.0,23.3,90,0.31,,,0.20,CWS Microserver 1.4,2013-03-09 06:38:00,
2013-03-09 00:43:00,32.7,30.4,29.97,South,169,13.1,22.4,91,0.32,,,0.22,CWS Microserver 1.4,2013-03-09 06:43:00,
2013-03-09 00:48:00,32.9,30.7,29.96,SSE,165,18.7,20.6,91,0.31,,,0.23,CWS Microserver 1.4,2013-03-09 06:48:00,
2013-03-09 00:53:00,33.0,30.9,29.96,SSE,155,15.9,20.5,91,0.27,,,0.23,CWS Microserver 1.4,2013-03-09 06:53:00,
2013-03-09 00:58:00,33.4,31.3,29.96,SSE,156,19.0,20.8,91,0.23,,,0.25,CWS Microserver 1.4,2013-03-09 06:58:00,
2013-03-09 01:03:00,33.6,31.4,29.95,SSE,153,19.2,23.4,91,0.24,,,0.30,CWS Microserver 1.4,2013-03-09 07:03:00,
2013-03-09 01:08:00,33.4,31.1,29.95,SSE,159,24.1,25.3,91,0.27,,,0.36,CWS Microserver 1.4,2013-03-09 07:08:00,
2013-03-09 01:13:00,33.4,31.2,29.95,SSE,150,18.5,25.3,91,0.33,,,0.44,CWS Microserver 1.4,2013-03-09 07:13:00,
2013-03-09 01:18:00,33.4,31.2,29.95,SE,141,16.1,24.8,91,0.34,,,0.48,CWS Microserver 1.4,2013-03-09 07:18:00,
2013-03-09 01:23:00,33.4,31.1,29.95,SE,143,12.7,23.4,91,0.34,,,0.49,CWS Microserver 1.4,2013-03-09 07:23:00,
2013-03-09 01:28:00,33.4,31.1,29.95,SSE,150,15.8,21.9,91,0.33,,,0.49,CWS Microserver 1.4,2013-03-09 07:28:00,
2013-03-09 01:33:00,33.2,30.8,29.95,SE,134,12.6,21.9,90,0.33,,,0.50,CWS Microserver 1.4,2013-03-09 07:33:00,
2013-03-09 01:38:00,33.2,30.8,29.95,SE,143,17.0,23.4,90,0.30,,,0.50,CWS Microserver 1.4,2013-03-09 07:38:00,
2013-03-09 01:43:00,33.0,30.7,29.94,SE,146,13.8,23.4,91,0.30,,,0.52,CWS Microserver 1.4,2013-03-09 07:43:00,
2013-03-09 01:48:00,33.0,30.7,29.94,SSE,150,14.5,21.9,91,0.29,,,0.52,CWS Microserver 1.4,2013-03-09 07:48:00,
2013-03-09 01:53:00,33.0,30.7,29.94,SE,136,14.7,20.0,91,0.30,,,0.53,CWS Microserver 1.4,2013-03-09 07:53:00,
2013-03-09 01:58:00,33.0,30.7,29.94,SSE,154,17.3,21.1,91,0.28,,,0.53,CWS Microserver 1.4,2013-03-09 07:58:00,
2013-03-09 02:03:00,33.2,30.9,29.93,SSE,152,16.1,21.1,91,0.24,,,0.54,CWS Microserver 1.4,2013-03-09 08:03:00,
2013-03-09 02:08:00,33.0,30.7,29.93,SSE,152,17.5,20.8,91,0.18,,,0.54,CWS Microserver 1.4,2013-03-09 08:08:00,
2013-03-09 02:13:00,33.2,30.8,29.93,SSE,155,21.8,23.0,90,0.11,,,0.55,CWS Microserver 1.4,2013-03-09 08:13:00,
2013-03-09 02:18:00,33.2,30.7,29.92,SE,141,16.8,24.1,90,0.07,,,0.55,CWS Microserver 1.4,2013-03-09 08:18:00,
2013-03-09 02:23:00,33.2,30.8,29.92,SSE,155,18.4,24.1,90,0.07,,,0.56,CWS Microserver 1.4,2013-03-09 08:23:00,
2013-03-09 02:28:00,33.4,30.9,29.91,SSE,152,17.0,24.0,90,0.07,,,0.56,CWS Microserver 1.4,2013-03-09 08:28:00,
2013-03-09 02:33:00,33.4,30.9,29.91,SSE,151,21.9,24.0,90,0.07,,,0.57,CWS Microserver 1.4,2013-03-09 08:33:00,
2013-03-09 02:38:00,33.4,30.9,29.91,SSE,152,14.9,21.9,90,0.07,,,0.57,CWS Microserver 1.4,2013-03-09 08:38:00,
2013-03-09 02:43:00,33.2,30.8,29.91,SSE,158,16.9,21.9,90,0.06,,,0.58,CWS Microserver 1.4,2013-03-09 08:43:00,
2013-03-09 02:48:00,33.2,30.8,29.90,SSE,148,13.6,21.8,90,0.06,,,0.58,CWS Microserver 1.4,2013-03-09 08:48:00,
2013-03-09 02:53:00,33.2,30.8,29.90,SSE,148,14.6,22.0,90,0.06,,,0.59,CWS Microserver 1.4,2013-03-09 08:53:00,
2013-03-09 02:58:00,33.4,31.0,29.90,SSE,158,15.6,22.7,90,0.06,,,0.59,CWS Microserver 1.4,2013-03-09 08:58:00,
2013-03-09 03:03:00,33.4,31.1,29.89,SE,142,12.2,22.7,91,0.05,,,0.59,CWS Microserver 1.4,2013-03-09 09:03:00,
2013-03-09 03:08:00,33.4,31.1,29.89,SSE,155,15.3,19.8,91,0.06,,,0.60,CWS Microserver 1.4,2013-03-09 09:08:00,
2013-03-09 03:13:00,33.4,31.1,29.89,SSE,165,9.9,18.7,91,0.05,,,0.60,CWS Microserver 1.4,2013-03-09 09:13:00,
2013-03-09 03:18:00,33.6,31.2,29.89,SSE,160,11.3,18.4,90,0.05,,,0.60,CWS Microserver 1.4,2013-03-09 09:18:00,
2013-03-09 03:23:00,33.6,31.2,29.88,SSE,158,11.7,19.4,90,0.05,,,0.61,CWS Microserver 1.4,2013-03-09 09:23:00,
2013-03-09 03:28:00,33.6,31.2,29.88,SSE,154,16.3,19.4,90,0.05,,,0.61,CWS Microserver 1.4,2013-03-09 09:28:00,
2013-03-09 03:33:00,33.6,31.2,29.88,SSE,159,17.0,19.0,90,0.04,,,0.61,CWS Microserver 1.4,2013-03-09 09:33:00,
2013-03-09 03:38:00,33.6,31.2,29.88,SSE,156,15.4,19.0,90,0.04,,,0.61,CWS Microserver 1.4,2013-03-09 09:38:00,
2013-03-09 03:43:00,33.6,31.2,29.88,SSE,166,15.8,18.2,90,0.03,,,0.61,CWS Microserver 1.4,2013-03-09 09:43:00,
2013-03-09 03:48:00,33.6,31.2,29.88,SSE,161,13.8,17.2,90,0.03,,,0.61,CWS Microserver 1.4,2013-03-09 09:48:00,
2013-03-09 03:53:00,33.6,31.2,29.87,SSE,150,13.5,16.6,90,0.02,,,0.61,CWS Microserver 1.4,2013-03-09 09:53:00,
2013-03-09 03:58:00,33.4,31.1,29.87,SSE,163,12.7,16.0,91,0.02,,,0.61,CWS Microserver 1.4,2013-03-09 09:58:00,
2013-03-09 04:03:00,33.4,31.1,29.87,SSE,163,13.2,14.0,91,0.02,,,0.61,CWS Microserver 1.4,2013-03-09 10:03:00,
2013-03-09 04:08:00,33.4,31.1,29.87,SSE,159,12.6,14.9,91,0.01,,,0.61,CWS Microserver 1.4,2013-03-09 10:08:00,
2013-03-09 04:13:00,33.4,31.1,29.87,SSE,163,12.0,14.9,91,0.01,,,0.61,CWS Microserver 1.4,2013-03-09 10:13:00,
2013-03-09 04:18:00,33.6,31.3,29.87,SSE,155,15.1,17.4,91,0.01,,,0.61,CWS Microserver 1.4,2013-03-09 10:18:00,
2013-03-09 04:23:00,33.6,31.3,29.87,SSE,157,13.9,18.7,91,0.00,,,0.61,CWS Microserver 1.4,2013-03-09 10:23:00,
2013-03-09 04:28:00,33.6,31.3,29.87,SSE,159,16.1,19.0,91,0.00,,,0.61,CWS Microserver 1.4,2013-03-09 10:28:00,
2013-03-09 04:33:00,33.6,31.3,29.87,SSE,161,14.6,19.0,91,0.00,,,0.61,CWS Microserver 1.4,2013-03-09 10:33:00,
2013-03-09 04:38:00,33.6,31.3,29.87,SSE,157,17.4,18.6,91,0.01,,,0.62,CWS Microserver 1.4,2013-03-09 10:38:00,
2013-03-09 04:43:00,33.6,31.4,29.86,SSE,160,13.4,19.3,91,0.02,,,0.63,CWS Microserver 1.4,2013-03-09 10:43:00,
2013-03-09 04:48:00,33.6,31.4,29.87,SSE,166,12.8,19.9,91,0.02,,,0.63,CWS Microserver 1.4,2013-03-09 10:48:00,
2013-03-09 04:53:00,33.6,31.4,29.86,SSE,164,14.1,19.9,91,0.02,,,0.63,CWS Microserver 1.4,2013-03-09 10:53:00,
2013-03-09 04:58:00,33.6,31.4,29.86,SSE,160,10.5,17.5,91,0.02,,,0.63,CWS Microserver 1.4,2013-03-09 10:58:00,
2013-03-09 05:03:00,33.6,31.4,29.86,SSE,158,11.3,16.7,91,0.02,,,0.63,CWS Microserver 1.4,2013-03-09 11:03:00,
2013-03-09 05:08:00,33.6,31.4,29.86,SSE,161,10.1,15.7,91,0.02,,,0.63,CWS Microserver 1.4,2013-03-09 11:08:00,
2013-03-09 05:13:00,33.6,31.4,29.85,SSE,157,12.0,15.8,91,0.02,,,0.63,CWS Microserver 1.4,2013-03-09 11:13:00,
2013-03-09 05:18:00,33.6,31.4,29.85,SSE,164,14.1,16.5,91,0.02,,,0.63,CWS Microserver 1.4,2013-03-09 11:18:00,
2013-03-09 05:23:00,33.6,31.4,29.85,SSE,159,15.3,16.5,91,0.02,,,0.63,CWS Microserver 1.4,2013-03-09 11:23:00,
2013-03-09 05:28:00,33.6,31.4,29.84,SSE,159,10.4,16.3,91,0.02,,,0.63,CWS Microserver 1.4,2013-03-09 11:28:00,
2013-03-09 05:33:00,33.8,31.6,29.84,SSE,165,15.3,16.6,91,0.02,,,0.63,CWS Microserver 1.4,2013-03-09 11:33:00,
2013-03-09 05:38:00,33.8,31.6,29.85,South,169,12.5,18.1,91,0.02,,,0.64,CWS Microserver 1.4,2013-03-09 11:38:00,
2013-03-09 05:43:00,33.9,31.7,29.85,SSE,165,12.2,18.1,91,0.01,,,0.64,CWS Microserver 1.4,2013-03-09 11:43:00,
2013-03-09 05:48:00,33.9,31.7,29.85,SSE,158,15.7,19.1,91,0.01,,,0.64,CWS Microserver 1.4,2013-03-09 11:48:00,
2013-03-09 05:53:00,33.8,31.6,29.85,SSE,159,13.7,19.1,91,0.02,,,0.65,CWS Microserver 1.4,2013-03-09 11:53:00,
2013-03-09 05:58:00,33.9,31.7,29.84,SSE,154,12.5,19.1,91,0.02,,,0.65,CWS Microserver 1.4,2013-03-09 11:58:00,
2013-03-09 06:03:00,33.8,31.7,29.84,SSE,153,12.0,18.2,91,0.03,,,0.66,CWS Microserver 1.4,2013-03-09 12:03:00,
2013-03-09 06:08:00,33.8,31.7,29.83,SSE,163,15.3,17.2,91,0.03,,,0.66,CWS Microserver 1.4,2013-03-09 12:08:00,
2013-03-09 06:13:00,33.9,31.8,29.83,SSE,157,13.3,17.5,91,0.03,,,0.66,CWS Microserver 1.4,2013-03-09 12:13:00,
2013-03-09 06:18:00,33.9,31.8,29.83,SSE,161,13.2,17.5,91,0.03,,,0.66,CWS Microserver 1.4,2013-03-09 12:18:00,
2013-03-09 06:23:00,33.9,31.8,29.83,SSE,154,13.8,18.1,91,0.03,,,0.66,CWS Microserver 1.4,2013-03-09 12:23:00,
2013-03-09 06:28:00,33.9,31.8,29.82,SSE,163,15.1,18.1,91,0.04,,,0.67,CWS Microserver 1.4,2013-03-09 12:28:00,
2013-03-09 06:33:00,33.8,31.7,29.82,SSE,163,13.6,17.7,91,0.04,,,0.67,CWS Microserver 1.4,2013-03-09 12:33:00,
2013-03-09 06:38:00,33.9,31.8,29.82,SSE,154,14.1,16.6,92,0.03,,,0.67,CWS Microserver 1.4,2013-03-09 12:38:00,
2013-03-09 06:43:00,33.8,31.7,29.82,SSE,166,11.6,18.4,92,0.03,,,0.67,CWS Microserver 1.4,2013-03-09 12:43:00,
2013-03-09 06:48:00,33.8,31.8,29.82,SSE,154,13.0,18.4,92,0.04,,,0.68,CWS Microserver 1.4,2013-03-09 12:48:00,
2013-03-09 06:53:00,33.8,31.8,29.82,SSE,158,11.8,16.9,92,0.03,,,0.68,CWS Microserver 1.4,2013-03-09 12:53:00,
2013-03-09 06:58:00,33.8,31.8,29.82,SSE,151,16.2,16.9,92,0.03,,,0.68,CWS Microserver 1.4,2013-03-09 12:58:00,
2013-03-09 07:03:00,33.9,31.9,29.82,SSE,150,18.9,20.3,92,0.03,,,0.69,CWS Microserver 1.4,2013-03-09 13:03:00,
2013-03-09 07:08:00,33.8,31.7,29.82,SSE,157,14.4,20.3,92,0.03,,,0.69,CWS Microserver 1.4,2013-03-09 13:08:00,
2013-03-09 07:13:00,33.8,31.7,29.82,SSE,159,13.6,19.2,92,0.03,,,0.69,CWS Microserver 1.4,2013-03-09 13:13:00,
2013-03-09 07:18:00,33.8,31.7,29.82,SSE,157,13.9,18.3,92,0.03,,,0.69,CWS Microserver 1.4,2013-03-09 13:18:00,
2013-03-09 07:23:00,33.8,31.7,29.82,SSE,165,12.1,18.3,92,0.03,,,0.69,CWS Microserver 1.4,2013-03-09 13:23:00,
2013-03-09 07:28:00,33.8,31.8,29.82,SSE,163,11.7,18.0,92,0.02,,,0.69,CWS Microserver 1.4,2013-03-09 13:28:00,
2013-03-09 07:33:00,33.8,31.8,29.82,SSE,155,12.5,18.2,92,0.02,,,0.69,CWS Microserver 1.4,2013-03-09 13:33:00,
2013-03-09 07:38:00,33.8,31.8,29.81,SSE,155,14.6,18.2,92,0.02,,,0.69,CWS Microserver 1.4,2013-03-09 13:38:00,
2013-03-09 07:43:00,33.8,31.8,29.80,SSE,159,14.0,18.2,92,0.02,,,0.69,CWS Microserver 1.4,2013-03-09 13:43:00,
2013-03-09 07:48:00,33.8,31.9,29.80,SSE,157,13.9,16.5,92,0.01,,,0.69,CWS Microserver 1.4,2013-03-09 13:48:00,
2013-03-09 07:53:00,33.8,31.9,29.79,SE,146,11.5,16.7,92,0.01,,,0.69,CWS Microserver 1.4,2013-03-09 13:53:00,
2013-03-09 07:58:00,33.8,31.9,29.79,SSE,149,18.4,18.5,92,0.01,,,0.69,CWS Microserver 1.4,2013-03-09 13:58:00,
2013-03-09 08:03:00,33.8,31.9,29.79,SSE,153,14.4,19.4,92,0.00,,,0.69,CWS Microserver 1.4,2013-03-09 14:03:00,
2013-03-09 08:08:00,33.9,32.0,29.79,SSE,161,18.5,19.7,92,0.00,,,0.69,CWS Microserver 1.4,2013-03-09 14:08:00,
2013-03-09 08:13:00,33.9,31.9,29.79,SE,144,11.5,19.7,92,0.00,,,0.69,CWS Microserver 1.4,2013-03-09 14:13:00,
2013-03-09 08:18:00,33.9,31.9,29.79,SSE,158,15.1,19.2,92,0.00,,,0.69,CWS Microserver 1.4,2013-03-09 14:18:00,
2013-03-09 08:23:00,33.9,31.9,29.79,SSE,151,14.5,19.8,92,0.00,,,0.69,CWS Microserver 1.4,2013-03-09 14:23:00,
2013-03-09 08:28:00,33.9,31.9,29.79,SSE,156,16.2,19.8,92,0.00,,,0.69,CWS Microserver 1.4,2013-03-09 14:28:00,
2013-03-09 08:33:00,33.9,32.0,29.79,SSE,163,17.1,18.7,92,0.00,,,0.69,CWS Microserver 1.4,2013-03-09 14:33:00,
2013-03-09 08:38:00,33.9,32.0,29.79,SSE,160,12.4,20.1,92,0.00,,,0.69,CWS Microserver 1.4,2013-03-09 14:38:00,
2013-03-09 08:43:00,34.1,32.2,29.80,South,171,9.2,20.1,92,0.00,,,0.69,CWS Microserver 1.4,2013-03-09 14:43:00,
2013-03-09 08:48:00,34.1,32.1,29.80,South,177,8.0,18.8,92,0.00,,,0.69,CWS Microserver 1.4,2013-03-09 14:48:00,
2013-03-09 08:53:00,34.1,32.1,29.79,South,180,9.4,19.4,92,0.00,,,0.69,CWS Microserver 1.4,2013-03-09 14:53:00,
2013-03-09 08:58:00,34.1,32.1,29.78,South,173,15.0,19.4,92,0.00,,,0.69,CWS Microserver 1.4,2013-03-09 14:58:00,
2013-03-09 09:03:00,33.9,31.9,29.78,SSE,162,18.1,19.3,92,0.01,,,0.70,CWS Microserver 1.4,2013-03-09 15:03:00,
2013-03-09 09:08:00,34.1,32.2,29.78,SSE,157,17.0,22.3,92,0.05,,,0.74,CWS Microserver 1.4,2013-03-09 15:08:00,
2013-03-09 09:13:00,33.9,32.0,29.77,SSE,161,10.3,22.3,92,0.07,,,0.76,CWS Microserver 1.4,2013-03-09 15:13:00,
2013-03-09 09:18:00,33.9,32.0,29.77,SE,144,8.3,17.9,92,0.10,,,0.79,CWS Microserver 1.4,2013-03-09 15:18:00,
2013-03-09 09:23:00,33.9,32.0,29.78,SSE,162,16.5,19.3,92,0.13,,,0.82,CWS Microserver 1.4,2013-03-09 15:23:00,
2013-03-09 09:28:00,33.9,32.0,29.78,SSE,161,14.6,19.4,92,0.17,,,0.86,CWS Microserver 1.4,2013-03-09 15:28:00,
2013-03-09 09:33:00,33.9,32.0,29.77,SSE,162,12.9,19.9,92,0.20,,,0.89,CWS Microserver 1.4,2013-03-09 15:33:00,
2013-03-09 09:38:00,34.1,32.2,29.77,SSE,163,13.1,19.9,92,0.22,,,0.91,CWS Microserver 1.4,2013-03-09 15:38:00,
2013-03-09 09:43:00,34.1,32.1,29.77,SSE,168,15.5,19.8,92,0.23,,,0.92,CWS Microserver 1.4,2013-03-09 15:43:00,
2013-03-09 09:48:00,34.1,32.0,29.77,South,189,6.9,20.6,92,0.24,,,0.93,CWS Microserver 1.4,2013-03-09 15:48:00,
2013-03-09 09:53:00,34.1,32.0,29.76,SSE,165,13.6,20.6,92,0.25,,,0.94,CWS Microserver 1.4,2013-03-09 15:53:00,
2013-03-09 09:58:00,34.1,32.0,29.76,SSE,163,16.1,17.3,92,0.27,,,0.96,CWS Microserver 1.4,2013-03-09 15:58:00,
2013-03-09 10:03:00,34.3,32.2,29.76,South,169,9.4,20.0,92,0.29,,,0.99,CWS Microserver 1.4,2013-03-09 16:03:00,
2013-03-09 10:08:00,34.1,32.0,29.75,SSE,152,15.0,20.0,92,0.28,,,1.02,CWS Microserver 1.4,2013-03-09 16:08:00,
2013-03-09 10:13:00,34.1,32.0,29.75,SSE,155,15.2,19.7,92,0.27,,,1.03,CWS Microserver 1.4,2013-03-09 16:13:00,
2013-03-09 10:18:00,34.1,32.1,29.74,SSE,157,15.9,19.1,92,0.25,,,1.04,CWS Microserver 1.4,2013-03-09 16:18:00,
2013-03-09 10:23:00,34.1,32.0,29.74,SSE,159,11.1,19.1,92,0.23,,,1.05,CWS Microserver 1.4,2013-03-09 16:23:00,
2013-03-09 10:28:00,34.1,32.0,29.74,SSE,151,12.2,17.8,92,0.19,,,1.05,CWS Microserver 1.4,2013-03-09 16:28:00,
2013-03-09 10:33:00,34.1,32.0,29.74,SSE,155,14.5,18.2,92,0.17,,,1.06,CWS Microserver 1.4,2013-03-09 16:33:00,
2013-03-09 10:38:00,34.3,32.2,29.73,SSE,154,14.8,18.2,92,0.16,,,1.07,CWS Microserver 1.4,2013-03-09 16:38:00,
2013-03-09 10:43:00,34.1,32.0,29.73,SSE,161,14.4,18.2,92,0.16,,,1.08,CWS Microserver 1.4,2013-03-09 16:43:00,
2013-03-09 10:48:00,34.1,32.0,29.73,SSE,149,12.1,17.5,92,0.16,,,1.09,CWS Microserver 1.4,2013-03-09 16:48:00,
2013-03-09 10:53:00,34.1,32.0,29.73,SE,143,12.9,16.6,92,0.17,,,1.11,CWS Microserver 1.4,2013-03-09 16:53:00,
2013-03-09 10:58:00,34.3,32.3,29.74,South,171,16.1,18.8,92,0.17,,,1.13,CWS Microserver 1.4,2013-03-09 16:58:00,
2013-03-09 11:03:00,34.3,32.3,29.74,SSE,156,12.5,19.0,92,0.16,,,1.15,CWS Microserver 1.4,2013-03-09 17:03:00,
2013-03-09 11:08:00,34.3,32.3,29.73,SSE,160,14.0,20.2,92,0.16,,,1.18,CWS Microserver 1.4,2013-03-09 17:08:00,
2013-03-09 11:13:00,34.1,32.1,29.72,SSE,161,13.6,20.2,92,0.16,,,1.19,CWS Microserver 1.4,2013-03-09 17:13:00,
2013-03-09 11:18:00,34.1,32.1,29.72,SSE,160,15.8,16.6,92,0.17,,,1.21,CWS Microserver 1.4,2013-03-09 17:18:00,
2013-03-09 11:23:00,34.1,32.2,29.72,SSE,159,12.0,16.6,92,0.18,,,1.23,CWS Microserver 1.4,2013-03-09 17:23:00,
2013-03-09 11:28:00,34.3,32.4,29.73,SSE,161,15.0,16.6,92,0.20,,,1.25,CWS Microserver 1.4,2013-03-09 17:28:00,
2013-03-09 11:33:00,34.3,32.4,29.73,South,175,8.3,16.3,92,0.22,,,1.28,CWS Microserver 1.4,2013-03-09 17:33:00,
2013-03-09 11:38:00,34.5,32.6,29.73,South,176,9.4,16.4,92,0.23,,,1.30,CWS Microserver 1.4,2013-03-09 17:38:00,
2013-03-09 11:48:00,34.3,32.3,29.73,SSE,155,12.7,15.7,92,0.23,,,1.32,CWS Microserver 1.4,2013-03-09 17:48:00,
2013-03-09 11:53:00,34.3,32.3,29.73,SSE,153,8.8,15.7,92,0.21,,,1.32,CWS Microserver 1.4,2013-03-09 17:53:00,
2013-03-09 11:58:00,34.3,32.3,29.72,SSE,157,12.4,16.3,92,0.21,,,1.34,CWS Microserver 1.4,2013-03-09 17:58:00,
2013-03-09 12:03:00,34.3,32.3,29.72,SSE,161,13.1,16.5,92,0.20,,,1.35,CWS Microserver 1.4,2013-03-09 18:03:00,
2013-03-09 12:08:00,34.5,32.5,29.72,SSE,157,12.2,16.5,92,0.19,,,1.37,CWS Microserver 1.4,2013-03-09 18:08:00,
2013-03-09 12:13:00,34.3,32.3,29.71,SSE,155,13.5,16.5,92,0.20,,,1.39,CWS Microserver 1.4,2013-03-09 18:13:00,
2013-03-09 12:18:00,34.3,32.2,29.70,SSE,150,12.2,16.5,92,0.20,,,1.41,CWS Microserver 1.4,2013-03-09 18:18:00,
2013-03-09 12:23:00,34.3,32.3,29.70,SSE,155,13.6,16.4,92,0.19,,,1.42,CWS Microserver 1.4,2013-03-09 18:23:00,
2013-03-09 12:28:00,34.5,32.5,29.70,SSE,153,11.1,14.3,92,0.19,,,1.44,CWS Microserver 1.4,2013-03-09 18:28:00,
2013-03-09 12:33:00,34.3,32.3,29.70,SSE,162,6.0,14.2,92,0.17,,,1.45,CWS Microserver 1.4,2013-03-09 18:33:00,
2013-03-09 12:38:00,34.5,32.5,29.70,SSE,154,6.3,12.0,92,0.15,,,1.45,CWS Microserver 1.4,2013-03-09 18:38:00,
2013-03-09 12:43:00,34.5,32.5,29.70,South,172,5.9,11.7,92,0.15,,,1.46,CWS Microserver 1.4,2013-03-09 18:43:00,
2013-03-09 12:48:00,34.5,32.5,29.70,SSE,151,5.3,11.7,92,0.14,,,1.46,CWS Microserver 1.4,2013-03-09 18:48:00,
2013-03-09 12:53:00,34.5,32.5,29.69,SSE,160,8.9,11.3,92,0.14,,,1.46,CWS Microserver 1.4,2013-03-09 18:53:00,
2013-03-09 12:58:00,34.5,32.4,29.69,SSE,161,9.9,12.3,92,0.12,,,1.46,CWS Microserver 1.4,2013-03-09 18:58:00,
2013-03-09 13:03:00,34.5,32.5,29.69,SSE,150,7.6,12.3,92,0.11,,,1.46,CWS Microserver 1.4,2013-03-09 19:03:00,
2013-03-09 13:08:00,34.7,32.7,29.68,SSE,151,7.5,11.0,92,0.09,,,1.46,CWS Microserver 1.4,2013-03-09 19:08:00,
2013-03-09 13:13:00,34.7,32.6,29.68,SSE,156,9.3,12.0,92,0.07,,,1.46,CWS Microserver 1.4,2013-03-09 19:13:00,
2013-03-09 13:18:00,34.7,32.7,29.69,South,175,9.9,13.5,92,0.05,,,1.46,CWS Microserver 1.4,2013-03-09 19:18:00,
2013-03-09 13:23:00,34.7,32.6,29.68,South,170,6.0,13.5,92,0.04,,,1.46,CWS Microserver 1.4,2013-03-09 19:23:00,
2013-03-09 13:28:00,34.8,32.8,29.68,SSE,165,7.3,12.5,92,0.02,,,1.46,CWS Microserver 1.4,2013-03-09 19:28:00,
2013-03-09 13:33:00,34.8,32.7,29.68,SSE,164,6.7,10.2,92,0.01,,,1.46,CWS Microserver 1.4,2013-03-09 19:33:00,
2013-03-09 13:38:00,34.8,32.8,29.68,South,181,5.3,10.2,92,0.01,,,1.46,CWS Microserver 1.4,2013-03-09 19:38:00,
2013-03-09 13:43:00,35.0,32.9,29.69,South,185,5.4,8.6,92,0.00,,,1.46,CWS Microserver 1.4,2013-03-09 19:43:00,
2013-03-09 13:48:00,35.0,33.0,29.69,South,188,4.0,7.9,92,0.03,,,1.49,CWS Microserver 1.4,2013-03-09 19:48:00,
2013-03-09 13:53:00,35.0,33.0,29.68,South,179,5.5,9.3,92,0.04,,,1.50,CWS Microserver 1.4,2013-03-09 19:53:00,
2013-03-09 13:58:00,35.0,32.9,29.68,SSW,193,3.3,9.3,92,0.04,,,1.50,CWS Microserver 1.4,2013-03-09 19:58:00,
2013-03-09 14:03:00,35.2,33.2,29.68,SSW,201,3.5,7.2,92,0.04,,,1.50,CWS Microserver 1.4,2013-03-09 20:03:00,
2013-03-09 14:08:00,35.0,32.9,29.68,South,190,4.4,6.1,92,0.04,,,1.50,CWS Microserver 1.4,2013-03-09 20:08:00,
2013-03-09 14:13:00,35.0,32.9,29.68,South,180,1.4,5.5,92,0.04,,,1.50,CWS Microserver 1.4,2013-03-09 20:13:00,
2013-03-09 14:18:00,35.0,32.9,29.68,South,187,3.1,5.5,92,0.04,,,1.50,CWS Microserver 1.4,2013-03-09 20:18:00,
2013-03-09 14:23:00,34.8,32.8,29.68,SSW,198,3.0,3.8,92,0.04,,,1.50,CWS Microserver 1.4,2013-03-09 20:23:00,
2013-03-09 14:28:00,35.2,33.2,29.67,South,186,1.9,3.8,92,0.04,,,1.50,CWS Microserver 1.4,2013-03-09 20:28:00,
2013-03-09 14:33:00,35.2,33.2,29.67,SSE,156,1.1,3.0,92,0.04,,,1.50,CWS Microserver 1.4,2013-03-09 20:33:00,
2013-03-09 14:38:00,35.0,33.0,29.67,SSE,147,2.1,3.0,92,0.04,,,1.50,CWS Microserver 1.4,2013-03-09 20:38:00,
2013-03-09 14:43:00,34.8,32.7,29.67,SSE,151,2.7,3.7,92,0.04,,,1.50,CWS Microserver 1.4,2013-03-09 20:43:00,
2013-03-09 14:48:00,34.7,32.7,29.67,SE,146,5.3,7.2,92,0.01,,,1.50,CWS Microserver 1.4,2013-03-09 20:48:00,
2013-03-09 14:53:00,34.5,32.5,29.67,SSE,147,9.3,9.3,92,0.00,,,1.50,CWS Microserver 1.4,2013-03-09 20:53:00,
2013-03-09 14:58:00,34.5,32.6,29.67,SSE,155,9.3,10.7,92,0.00,,,1.50,CWS Microserver 1.4,2013-03-09 20:58:00,
2013-03-09 15:03:00,34.5,32.6,29.66,SSE,153,7.2,10.8,92,0.00,,,1.50,CWS Microserver 1.4,2013-03-09 21:03:00,
2013-03-09 15:13:00,34.7,32.9,29.66,SSE,152,7.1,11.0,93,0.00,,,1.50,CWS Microserver 1.4,2013-03-09 21:13:00,
2013-03-09 15:18:00,34.7,32.9,29.65,SSE,151,7.6,12.5,93,0.00,,,1.50,CWS Microserver 1.4,2013-03-09 21:18:00,
2013-03-09 15:28:00,34.7,32.9,29.66,SSE,155,7.4,11.1,93,0.00,,,1.50,CWS Microserver 1.4,2013-03-09 21:28:00,
2013-03-09 15:33:00,34.7,32.9,29.66,SSE,150,6.1,10.5,93,0.00,,,1.50,CWS Microserver 1.4,2013-03-09 21:33:00,
2013-03-09 15:38:00,34.7,32.9,29.66,SSE,152,6.5,9.4,93,0.00,,,1.50,CWS Microserver 1.4,2013-03-09 21:38:00,
2013-03-09 15:43:00,34.7,32.9,29.66,SSE,153,8.3,9.3,93,0.00,,,1.50,CWS Microserver 1.4,2013-03-09 21:43:00,
2013-03-09 15:53:00,34.7,32.9,29.67,SSE,157,6.9,9.5,93,0.00,,,1.50,CWS Microserver 1.4,2013-03-09 21:53:00,
2013-03-09 15:58:00,34.5,32.7,29.67,SSE,159,5.9,8.9,93,0.00,,,1.50,CWS Microserver 1.4,2013-03-09 21:58:00,
2013-03-09 16:03:00,34.5,32.7,29.67,SSE,155,6.7,7.9,93,0.00,,,1.50,CWS Microserver 1.4,2013-03-09 22:03:00,
2013-03-09 16:13:00,34.7,33.0,29.67,SSE,157,7.0,8.7,93,0.00,,,1.50,CWS Microserver 1.4,2013-03-09 22:13:00,
2013-03-09 16:18:00,34.7,33.0,29.67,SSE,150,6.9,8.7,93,0.00,,,1.50,CWS Microserver 1.4,2013-03-09 22:18:00,
2013-03-09 16:23:00,34.7,33.0,29.67,SSE,155,4.0,8.7,93,0.00,,,1.50,CWS Microserver 1.4,2013-03-09 22:23:00,
2013-03-09 16:28:00,34.7,33.0,29.67,SSE,151,4.5,7.6,93,0.00,,,1.50,CWS Microserver 1.4,2013-03-09 22:28:00,
2013-03-09 16:33:00,34.7,33.0,29.67,South,176,2.5,6.4,93,0.00,,,1.50,CWS Microserver 1.4,2013-03-09 22:33:00,
2013-03-09 16:38:00,34.7,33.0,29.67,SE,138,4.8,6.0,93,0.00,,,1.50,CWS Microserver 1.4,2013-03-09 22:38:00,
2013-03-09 16:43:00,34.7,33.0,29.66,SE,130,2.6,6.0,93,0.00,,,1.50,CWS Microserver 1.4,2013-03-09 22:43:00,
2013-03-09 16:48:00,35.0,33.3,29.67,South,184,1.6,5.3,93,0.00,,,1.50,CWS Microserver 1.4,2013-03-09 22:48:00,
2013-03-09 16:53:00,34.8,33.1,29.67,SSE,152,1.9,4.6,93,0.00,,,1.50,CWS Microserver 1.4,2013-03-09 22:53:00,
2013-03-09 16:58:00,34.8,33.1,29.67,SSE,158,3.3,3.4,93,0.00,,,1.50,CWS Microserver 1.4,2013-03-09 22:58:00,
2013-03-09 17:03:00,34.8,33.1,29.67,South,182,4.3,4.4,93,0.00,,,1.50,CWS Microserver 1.4,2013-03-09 23:03:00,
2013-03-09 17:08:00,34.8,33.1,29.67,SSW,213,1.1,4.4,93,0.00,,,1.50,CWS Microserver 1.4,2013-03-09 23:08:00,
2013-03-09 17:13:00,34.8,33.1,29.68,South,191,1.9,4.4,93,0.00,,,1.50,CWS Microserver 1.4,2013-03-09 23:13:00,
2013-03-09 17:18:00,35.0,33.3,29.68,SW,227,1.5,3.2,93,0.00,,,1.50,CWS Microserver 1.4,2013-03-09 23:18:00,
2013-03-09 17:23:00,34.8,33.1,29.67,NE,39,0.2,3.2,93,0.00,,,1.50,CWS Microserver 1.4,2013-03-09 23:23:00,
2013-03-09 17:28:00,34.8,33.1,29.67,NW,317,8.2,8.9,93,0.00,,,1.50,CWS Microserver 1.4,2013-03-09 23:28:00,
2013-03-09 17:33:00,34.5,32.8,29.68,NW,320,8.6,11.4,93,0.00,,,1.50,CWS Microserver 1.4,2013-03-09 23:33:00,
2013-03-09 17:38:00,34.3,32.6,29.68,NW,321,6.8,11.4,93,0.00,,,1.50,CWS Microserver 1.4,2013-03-09 23:38:00,
2013-03-09 17:43:00,34.5,32.8,29.68,NNW,330,4.9,8.6,93,0.00,,,1.50,CWS Microserver 1.4,2013-03-09 23:43:00,
2013-03-09 17:48:00,34.7,33.0,29.68,NNW,348,6.4,8.4,93,0.00,,,1.50,CWS Microserver 1.4,2013-03-09 23:48:00,
2013-03-09 17:53:00,34.8,33.1,29.68,North,351,6.2,8.3,93,0.00,,,1.50,CWS Microserver 1.4,2013-03-09 23:53:00,
2013-03-09 17:58:00,34.8,33.1,29.68,NNW,338,5.8,8.5,93,0.00,,,1.50,CWS Microserver 1.4,2013-03-09 23:58:00,
2013-03-09 18:03:00,34.7,33.0,29.69,NNW,334,7.4,11.0,93,0.00,,,1.50,CWS Microserver 1.4,2013-03-10 00:03:00,
2013-03-09 18:08:00,34.7,33.0,29.69,NNW,329,6.1,11.0,93,0.00,,,1.50,CWS Microserver 1.4,2013-03-10 00:08:00,
2013-03-09 18:13:00,34.5,32.8,29.69,NNW,334,7.5,10.8,93,0.00,,,1.50,CWS Microserver 1.4,2013-03-10 00:13:00,
2013-03-09 18:18:00,34.7,33.0,29.70,NNW,344,3.8,10.9,93,0.00,,,1.50,CWS Microserver 1.4,2013-03-10 00:18:00,
2013-03-09 18:23:00,34.7,33.0,29.70,North,354,3.3,10.9,93,0.00,,,1.50,CWS Microserver 1.4,2013-03-10 00:23:00,
2013-03-09 18:28:00,34.7,33.0,29.71,NNW,337,3.4,9.9,93,0.00,,,1.50,CWS Microserver 1.4,2013-03-10 00:28:00,
2013-03-09 18:33:00,34.5,32.8,29.72,North,350,3.1,8.9,93,0.00,,,1.50,CWS Microserver 1.4,2013-03-10 00:33:00,
2013-03-09 18:38:00,34.5,32.8,29.72,NNW,339,8.0,8.5,93,0.00,,,1.50,CWS Microserver 1.4,2013-03-10 00:38:00,
2013-03-09 18:43:00,34.5,32.8,29.72,NNW,346,5.3,9.7,93,0.00,,,1.50,CWS Microserver 1.4,2013-03-10 00:43:00,
2013-03-09 18:48:00,34.3,32.6,29.72,North,4,6.0,9.7,93,0.00,,,1.50,CWS Microserver 1.4,2013-03-10 00:48:00,
2013-03-09 18:53:00,34.3,32.6,29.72,NNW,345,5.9,9.5,93,0.00,,,1.50,CWS Microserver 1.4,2013-03-10 00:53:00,
2013-03-09 18:58:00,34.1,32.4,29.72,NNW,340,9.3,9.5,93,0.00,,,1.50,CWS Microserver 1.4,2013-03-10 00:58:00,
2013-03-09 19:03:00,33.9,32.2,29.72,NNW,327,7.0,11.4,93,0.00,,,1.50,CWS Microserver 1.4,2013-03-10 01:03:00,
2013-03-09 19:08:00,33.8,32.1,29.73,NW,323,8.0,14.8,93,0.00,,,1.50,CWS Microserver 1.4,2013-03-10 01:08:00,
2013-03-09 19:13:00,33.6,31.9,29.73,NNW,332,5.7,14.8,93,0.00,,,1.50,CWS Microserver 1.4,2013-03-10 01:13:00,
2013-03-09 19:18:00,33.4,31.7,29.72,North,354,10.3,13.3,93,0.00,,,1.50,CWS Microserver 1.4,2013-03-10 01:18:00,
2013-03-09 19:23:00,33.2,31.5,29.72,North,356,6.3,14.6,93,0.00,,,1.50,CWS Microserver 1.4,2013-03-10 01:23:00,
2013-03-09 19:28:00,33.0,31.3,29.72,NW,321,9.4,14.6,93,0.00,,,1.50,CWS Microserver 1.4,2013-03-10 01:28:00,
2013-03-09 19:33:00,32.9,31.2,29.72,NNW,329,9.3,16.5,93,0.00,,,1.50,CWS Microserver 1.4,2013-03-10 01:33:00,
2013-03-09 19:38:00,32.7,31.0,29.72,NNW,345,9.9,16.8,93,0.00,,,1.50,CWS Microserver 1.4,2013-03-10 01:38:00,
2013-03-09 19:43:00,32.5,30.8,29.73,NNW,330,9.2,16.8,93,0.00,,,1.50,CWS Microserver 1.4,2013-03-10 01:43:00,
2013-03-09 19:48:00,32.5,30.8,29.73,NW,323,9.6,16.5,93,0.00,,,1.50,CWS Microserver 1.4,2013-03-10 01:48:00,
2013-03-09 19:53:00,32.3,30.6,29.73,NNW,333,10.8,16.1,93,0.00,,,1.50,CWS Microserver 1.4,2013-03-10 01:53:00,
2013-03-09 19:58:00,32.3,30.6,29.74,NNW,340,7.4,15.3,93,0.00,,,1.50,CWS Microserver 1.4,2013-03-10 01:58:00,
2013-03-09 20:03:00,32.3,30.6,29.73,North,357,11.9,15.5,93,0.00,,,1.50,CWS Microserver 1.4,2013-03-10 02:03:00,
2013-03-09 20:08:00,32.3,30.6,29.74,NNW,340,12.5,16.9,93,0.00,,,1.50,CWS Microserver 1.4,2013-03-10 02:08:00,
2013-03-09 20:13:00,32.3,30.6,29.75,NW,307,7.6,16.9,93,0.00,,,1.50,CWS Microserver 1.4,2013-03-10 02:13:00,
2013-03-09 20:18:00,32.3,30.6,29.76,NW,313,12.1,16.3,93,0.01,,,1.51,CWS Microserver 1.4,2013-03-10 02:18:00,
2013-03-09 20:23:00,32.3,30.6,29.76,NNW,345,8.6,17.8,93,0.02,,,1.52,CWS Microserver 1.4,2013-03-10 02:23:00,
2013-03-09 20:28:00,32.3,30.6,29.76,NNW,330,13.1,17.8,93,0.04,,,1.54,CWS Microserver 1.4,2013-03-10 02:28:00,
2013-03-09 20:33:00,32.3,30.6,29.75,NNW,336,14.4,17.5,93,0.05,,,1.55,CWS Microserver 1.4,2013-03-10 02:33:00,
2013-03-09 20:38:00,32.3,30.6,29.76,NNW,339,12.9,16.7,93,0.08,,,1.58,CWS Microserver 1.4,2013-03-10 02:38:00,
2013-03-09 20:43:00,32.1,30.4,29.77,NNW,327,10.4,17.3,93,0.10,,,1.60,CWS Microserver 1.4,2013-03-10 02:43:00,
2013-03-09 20:48:00,32.1,30.4,29.77,NW,313,10.2,17.3,93,0.13,,,1.63,CWS Microserver 1.4,2013-03-10 02:48:00,
2013-03-09 20:53:00,32.1,30.4,29.76,NNW,336,8.8,15.9,93,0.14,,,1.64,CWS Microserver 1.4,2013-03-10 02:53:00,
2013-03-09 21:03:00,32.1,30.4,29.75,NW,323,9.8,20.2,93,0.16,,,1.66,CWS Microserver 1.4,2013-03-10 03:03:00,
2013-03-09 21:08:00,32.1,30.4,29.75,NW,326,13.5,20.2,93,0.18,,,1.68,CWS Microserver 1.4,2013-03-10 03:08:00,
2013-03-09 21:13:00,32.1,30.3,29.76,NNW,344,9.1,17.4,93,0.18,,,1.68,CWS Microserver 1.4,2013-03-10 03:13:00,
2013-03-09 21:18:00,32.1,30.3,29.77,NNW,338,13.3,17.8,93,0.18,,,1.69,CWS Microserver 1.4,2013-03-10 03:18:00,
2013-03-09 21:23:00,32.1,30.3,29.77,NNW,344,11.0,17.8,92,0.17,,,1.69,CWS Microserver 1.4,2013-03-10 03:23:00,
2013-03-09 21:28:00,32.1,30.2,29.77,NNW,333,9.1,20.2,92,0.16,,,1.70,CWS Microserver 1.4,2013-03-10 03:28:00,
2013-03-09 21:33:00,32.1,30.2,29.77,NNW,346,11.5,20.8,92,0.16,,,1.71,CWS Microserver 1.4,2013-03-10 03:33:00,
2013-03-09 21:38:00,32.1,30.1,29.77,NNW,334,10.5,20.8,92,0.14,,,1.72,CWS Microserver 1.4,2013-03-10 03:38:00,
2013-03-09 21:43:00,32.1,30.1,29.77,NNW,340,11.4,18.9,92,0.13,,,1.73,CWS Microserver 1.4,2013-03-10 03:43:00,
2013-03-09 21:48:00,32.1,30.1,29.77,NNW,344,13.0,20.6,92,0.10,,,1.73,CWS Microserver 1.4,2013-03-10 03:48:00,
2013-03-09 21:58:00,32.1,30.0,29.77,NNW,342,9.4,22.5,92,0.10,,,1.75,CWS Microserver 1.4,2013-03-10 03:58:00,
2013-03-09 22:08:00,32.1,30.0,29.78,NNW,339,15.6,22.5,91,0.09,,,1.77,CWS Microserver 1.4,2013-03-10 04:08:00,
2013-03-09 22:13:00,32.1,29.9,29.79,NNW,340,16.5,21.9,91,0.10,,,1.78,CWS Microserver 1.4,2013-03-10 04:13:00,
2013-03-09 22:18:00,32.1,29.9,29.79,NNW,328,12.3,21.9,91,0.10,,,1.79,CWS Microserver 1.4,2013-03-10 04:18:00,
2013-03-09 22:23:00,32.1,29.9,29.79,NNW,346,12.9,21.5,91,0.11,,,1.80,CWS Microserver 1.4,2013-03-10 04:23:00,
2013-03-09 22:28:00,32.1,29.9,29.79,NNW,343,11.6,21.5,91,0.11,,,1.81,CWS Microserver 1.4,2013-03-10 04:28:00,
2013-03-09 22:33:00,32.0,29.8,29.79,North,353,12.1,21.7,91,0.11,,,1.82,CWS Microserver 1.4,2013-03-10 04:33:00,
2013-03-09 22:38:00,32.0,29.7,29.78,NNW,348,15.0,21.7,91,0.11,,,1.83,CWS Microserver 1.4,2013-03-10 04:38:00,
2013-03-09 22:43:00,32.0,29.7,29.79,North,354,14.8,20.7,91,0.12,,,1.85,CWS Microserver 1.4,2013-03-10 04:43:00,
2013-03-09 22:48:00,32.0,29.7,29.78,NNW,347,17.4,19.7,91,0.13,,,1.86,CWS Microserver 1.4,2013-03-10 04:48:00,
2013-03-09 22:53:00,32.0,29.7,29.78,NNW,346,14.8,22.1,91,0.12,,,1.86,CWS Microserver 1.4,2013-03-10 04:53:00,
2013-03-09 22:58:00,32.0,29.7,29.78,North,2,16.6,22.1,91,0.11,,,1.86,CWS Microserver 1.4,2013-03-10 04:58:00,
2013-03-09 23:03:00,32.0,29.7,29.77,North,351,16.1,21.3,91,0.10,,,1.86,CWS Microserver 1.4,2013-03-10 05:03:00,
2013-03-09 23:08:00,32.0,29.8,29.78,NNW,345,18.3,21.3,91,0.10,,,1.87,CWS Microserver 1.4,2013-03-10 05:08:00,
2013-03-09 23:13:00,32.0,29.8,29.80,NNW,328,13.8,19.5,91,0.09,,,1.87,CWS Microserver 1.4,2013-03-10 05:13:00,
2013-03-09 23:18:00,32.0,29.8,29.81,NNW,341,10.3,19.2,91,0.08,,,1.87,CWS Microserver 1.4,2013-03-10 05:18:00,
2013-03-09 23:23:00,31.9,29.6,29.80,North,353,15.0,20.7,91,0.07,,,1.87,CWS Microserver 1.4,2013-03-10 05:23:00,
2013-03-09 23:28:00,32.0,29.7,29.80,NNW,348,13.5,21.6,91,0.07,,,1.88,CWS Microserver 1.4,2013-03-10 05:28:00,
2013-03-09 23:33:00,31.9,29.6,29.80,North,350,13.2,21.7,91,0.06,,,1.88,CWS Microserver 1.4,2013-03-10 05:33:00,
2013-03-09 23:38:00,31.9,29.7,29.79,North,352,13.8,21.7,91,0.05,,,1.88,CWS Microserver 1.4,2013-03-10 05:38:00,
2013-03-09 23:43:00,31.9,29.7,29.78,NNW,344,10.0,20.6,91,0.03,,,1.88,CWS Microserver 1.4,2013-03-10 05:43:00,
2013-03-09 23:48:00,31.7,29.5,29.78,NNE,18,18.1,22.5,91,0.03,,,1.89,CWS Microserver 1.4,2013-03-10 05:48:00,
2013-03-09 23:58:00,31.7,29.6,29.79,North,356,14.9,21.3,92,0.03,,,0.00,CWS Microserver 1.4,2013-03-10 05:58:00,